User: anonymous   Login
Location: Unspecified
(0.0000°N, 0.0000°E)
Time: 22:56:19
(UTC+02:00)
Language:

YAOGAN 1 - Orbit

View from above orbital plane
View from above orbital plane
View from above satellite
View from above satellite

Ground track
Ground track

The orbit data is extracted from the following two-line orbital elements,

1 29092U 06015A   18115.96010001 +.00000101 +00000-0 +19065-4 0  9994
2 29092 097.9932 132.4953 0001431 092.7631 267.3746 14.82900273648613
Epoch (UTC): 25 April 2018 23:02:32
Eccentricity: 0.0001431
inclination: 97.9932°
perigee height: 619 km
apogee height: 621 km
right ascension of ascending node: 132.4953°
argument of perigee: 92.7631°
revolutions per day: 14.82900273
mean anomaly at epoch: 267.3746°
orbit number at epoch: 64861

The dashed part of the orbit path shows where the satellite is in the earth's shadow,  

DLR